Flag for U.S.A. Weather past 2 weeks in Lafayette, Louisiana, U.S.A.

Now
74 °F

Light rain. Passing clouds.


Feels Like: 71 °F
Forecast: 68 / 75 °F
Wind: 6 mph from Southwest

Location: Lafayette Regional Airport

Current Time: Apr 18, 2015 at 12:35:36 AM

Latest Report: Apr 17, 2015 at 11:53 PM


Visibility: 7 mi

Pressure: 29.93 "Hg

Humidity: 94%

Dew point: 72 °F

Location of LafayetteLocation

Historic Weather in Lafayette — Graph

°F

Lafayette temperature yesterday

Maximum temperature yesterday: 83 °F (at 3:53 PM)
Minimum temperature yesterday: 67 °F (at 2:53 AM)
Average temperature yesterday: 74 °F

Past Weeks' High & Low Weather Summary

 TemperatureHumidityPressure
High85 °F (Apr 8, 1:53 PM)100% (Apr 5, 5:01 PM)30.27 "Hg (Apr 5, 5:01 PM)
Low55 °F (Apr 5, 1:53 AM)41% (Apr 4, 3:53 PM)29.90 "Hg (Apr 17, 6:53 AM)
Average71 °F84%30.03 "Hg
* Reported Apr 2 10:53 PM — Apr 17 10:53 PM, Lafayette, Weather by CustomWeather, © 2015

Note: Actual official high and low records may vary slightly from our data, if they occured in-between our weather recording intervals... More about our weather records

Advertising

Lafayette weather history for previous 24 hours

 ConditionsComfort  
Time TempWeatherWind HumidityBarometerVisibility
10:53 PM
Fri, Apr 17
74 °FLight rain. Passing clouds.7 mph91%29.90 "Hg10 mi
9:53 PM76 °FClear.No wind85%29.95 "Hg10 mi
8:53 PM76 °FClear.No wind85%29.91 "Hg10 mi
7:53 PM77 °FSunny.No wind82%29.90 "Hg10 mi
6:53 PM78 °FSunny.3 mph79%29.91 "Hg10 mi
5:53 PM80 °FPartly sunny.No wind69%29.90 "Hg10 mi
4:53 PM82 °FPassing clouds.3 mph65%29.90 "Hg10 mi
3:53 PM83 °FPartly sunny.5 mph63%29.90 "Hg10 mi
2:53 PM80 °FPassing clouds.5 mph67%29.94 "Hg10 mi
1:53 PM80 °FPartly sunny.5 mph67%29.96 "Hg9 mi
12:53 PM79 °FPartly sunny.3 mph69%29.99 "Hg10 mi
11:53 AM77 °FPassing clouds.No wind71%30.01 "Hg10 mi
10:53 AM75 °FOvercast.3 mph79%30.01 "Hg10 mi
9:53 AM74 °FPartly sunny.No wind79%29.98 "Hg10 mi
8:53 AM72 °FSunny.6 mph84%29.96 "Hg10 mi
7:53 AM69 °FSunny.6 mph90%29.93 "Hg10 mi
6:53 AM67 °FClear.3 mph100%29.90 "Hg10 mi
6:03 AM67 °FPassing clouds.6 mph100%29.93 "Hg10 mi
4:53 AM67 °FMostly cloudy.No wind100%29.97 "Hg10 mi
3:53 AM67 °FPartly cloudy.3 mph100%30.00 "Hg10 mi
2:53 AM67 °FLow clouds.6 mph100%30.04 "Hg10 mi
1:53 AM68 °FHeavy rain. Fog.12 mph100%30.06 "Hg3 mi
1:01 AM68 °FMostly cloudy.5 mph100%30.03 "Hg10 mi
Weather by CustomWeather, © 2015

See weather overviewHow to use our weather pages